Time,TemperatureF,DewpointF,PressureIn,WindDirection,WindDirectionDegrees,WindSpeedMPH,WindSpeedGustMPH,Humidity,HourlyPrecipIn,Conditions,Clouds,dailyrainin,SoftwareType,DateUTC
2013-06-06 00:02:00,63.0,55.0,29.96,SW,225,0.0,1.0,76,0.00,,,0.00,,2013-06-06 07:02:00,
2013-06-06 00:12:00,63.0,55.0,29.96,SW,225,0.0,1.0,76,0.00,,,0.00,,2013-06-06 07:12:00,
2013-06-06 00:22:00,62.0,55.0,29.96,SW,225,0.0,1.0,77,0.00,,,0.00,,2013-06-06 07:22:00,
2013-06-06 00:32:00,62.0,55.0,29.95,SW,227,0.0,2.0,77,0.00,,,0.00,,2013-06-06 07:32:00,
2013-06-06 00:42:00,62.0,55.0,29.95,SW,227,0.0,2.0,77,0.00,,,0.00,,2013-06-06 07:42:00,
2013-06-06 00:52:00,61.0,54.0,29.96,SW,227,0.0,1.0,79,0.00,,,0.00,,2013-06-06 07:52:00,
2013-06-06 01:02:00,61.0,54.0,29.96,SW,221,0.0,3.0,79,0.00,,,0.00,,2013-06-06 08:02:00,
2013-06-06 01:11:00,61.0,54.0,29.96,SW,221,0.0,3.0,79,0.00,,,0.00,,2013-06-06 08:11:00,
2013-06-06 01:22:00,60.0,54.0,29.96,SW,236,0.0,2.0,80,0.00,,,0.00,,2013-06-06 08:22:00,
2013-06-06 01:31:00,60.0,54.0,29.96,WSW,242,0.0,4.0,80,0.00,,,0.00,,2013-06-06 08:31:00,
2013-06-06 01:42:00,60.0,54.0,29.96,WNW,298,0.0,2.0,81,0.00,,,0.00,,2013-06-06 08:42:00,
2013-06-06 01:52:00,60.0,54.0,29.96,WNW,298,0.0,2.0,81,0.00,,,0.00,,2013-06-06 08:52:00,
2013-06-06 02:01:00,60.0,54.0,29.96,WSW,254,0.0,3.0,81,0.00,,,0.00,,2013-06-06 09:01:00,
2013-06-06 02:12:00,60.0,54.0,29.96,WSW,254,0.0,3.0,81,0.00,,,0.00,,2013-06-06 09:12:00,
2013-06-06 02:22:00,60.0,54.0,29.96,WSW,254,0.0,1.0,81,0.00,,,0.00,,2013-06-06 09:22:00,
2013-06-06 02:32:00,60.0,54.0,29.96,WSW,254,0.0,1.0,81,0.00,,,0.00,,2013-06-06 09:32:00,
2013-06-06 02:42:00,60.0,54.0,29.96,WSW,254,0.0,1.0,81,0.00,,,0.00,,2013-06-06 09:42:00,
2013-06-06 02:53:00,59.0,54.0,29.96,SW,219,0.0,1.0,82,0.00,,,0.00,,2013-06-06 09:53:00,
2013-06-06 03:02:00,59.0,54.0,29.96,SW,221,0.0,1.0,82,0.00,,,0.00,,2013-06-06 10:02:00,
2013-06-06 03:12:00,58.0,53.0,29.96,SW,221,0.0,2.0,83,0.00,,,0.00,,2013-06-06 10:12:00,
2013-06-06 03:22:00,58.0,53.0,29.96,SW,221,0.0,2.0,83,0.00,,,0.00,,2013-06-06 10:22:00,
2013-06-06 03:32:00,58.0,53.0,29.96,SW,221,0.0,1.0,83,0.00,,,0.00,,2013-06-06 10:32:00,
2013-06-06 03:41:00,58.0,53.0,29.96,SW,221,0.0,1.0,83,0.00,,,0.00,,2013-06-06 10:41:00,
2013-06-06 03:52:00,58.0,53.0,29.96,West,262,0.0,1.0,84,0.00,,,0.00,,2013-06-06 10:52:00,
2013-06-06 04:02:00,58.0,53.0,29.97,West,262,0.0,0.0,84,0.00,,,0.00,,2013-06-06 11:02:00,
2013-06-06 04:11:00,58.0,53.0,29.97,West,262,0.0,0.0,84,0.00,,,0.00,,2013-06-06 11:11:00,
2013-06-06 04:22:00,57.0,52.0,29.97,WSW,258,0.0,1.0,84,0.00,,,0.00,,2013-06-06 11:22:00,
2013-06-06 04:32:00,57.0,53.0,29.97,WSW,258,0.0,0.0,85,0.00,,,0.00,,2013-06-06 11:32:00,
2013-06-06 04:42:00,57.0,53.0,29.97,WSW,258,0.0,0.0,85,0.00,,,0.00,,2013-06-06 11:42:00,
2013-06-06 04:52:00,57.0,53.0,29.98,WSW,258,0.0,0.0,86,0.00,,,0.00,,2013-06-06 11:52:00,
2013-06-06 05:02:00,57.0,53.0,29.98,WSW,258,0.0,0.0,86,0.00,,,0.00,,2013-06-06 12:02:00,
2013-06-06 05:12:00,57.0,53.0,29.98,WSW,258,0.0,0.0,86,0.00,,,0.00,,2013-06-06 12:12:00,
2013-06-06 05:22:00,57.0,53.0,29.98,WSW,246,0.0,1.0,86,0.00,,,0.00,,2013-06-06 12:22:00,
2013-06-06 05:32:00,57.0,53.0,29.98,SW,225,0.0,3.0,86,0.00,,,0.00,,2013-06-06 12:32:00,
2013-06-06 05:42:00,56.0,52.0,29.98,WSW,242,0.0,0.0,86,0.00,,,0.00,,2013-06-06 12:42:00,
2013-06-06 05:52:00,56.0,52.0,29.98,WSW,242,0.0,0.0,86,0.00,,,0.00,,2013-06-06 12:52:00,
2013-06-06 06:02:00,56.0,52.0,29.99,WSW,242,0.0,0.0,86,0.00,,,0.00,,2013-06-06 13:02:00,
2013-06-06 06:12:00,56.0,52.0,29.99,WSW,242,0.0,0.0,86,0.00,,,0.00,,2013-06-06 13:12:00,
2013-06-06 06:22:00,56.0,52.0,29.99,WSW,242,0.0,0.0,86,0.00,,,0.00,,2013-06-06 13:22:00,
2013-06-06 06:32:00,56.0,52.0,29.99,WSW,242,0.0,0.0,86,0.00,,,0.00,,2013-06-06 13:32:00,
2013-06-06 06:42:00,56.0,52.0,29.99,WSW,242,0.0,0.0,86,0.00,,,0.00,,2013-06-06 13:42:00,
2013-06-06 06:52:00,56.0,53.0,29.99,WSW,242,0.0,0.0,89,0.00,,,0.00,,2013-06-06 13:52:00,
2013-06-06 07:02:00,56.0,53.0,30.00,WSW,242,0.0,1.0,89,0.00,,,0.00,,2013-06-06 14:02:00,
2013-06-06 07:12:00,56.0,53.0,30.00,WSW,242,0.0,1.0,89,0.00,,,0.00,,2013-06-06 14:12:00,
2013-06-06 07:22:00,57.0,54.0,30.00,WSW,242,0.0,1.0,89,0.00,,,0.00,,2013-06-06 14:22:00,
2013-06-06 07:32:00,57.0,54.0,30.00,WSW,242,0.0,0.0,89,0.00,,,0.00,,2013-06-06 14:32:00,
2013-06-06 07:42:00,57.0,54.0,30.00,WSW,242,0.0,0.0,89,0.00,,,0.00,,2013-06-06 14:42:00,
2013-06-06 07:52:00,58.0,54.0,30.00,WSW,242,0.0,1.0,86,0.00,,,0.00,,2013-06-06 14:52:00,
2013-06-06 08:02:00,59.0,54.0,30.00,WSW,242,0.0,1.0,84,0.00,,,0.00,,2013-06-06 15:02:00,
2013-06-06 08:12:00,59.0,54.0,30.00,WSW,242,0.0,1.0,84,0.00,,,0.00,,2013-06-06 15:12:00,
2013-06-06 08:22:00,61.0,56.0,30.00,WSW,239,0.0,1.0,83,0.00,,,0.00,,2013-06-06 15:22:00,
2013-06-06 08:32:00,61.0,55.0,30.00,WSW,246,0.0,2.0,81,0.00,,,0.00,,2013-06-06 15:32:00,
2013-06-06 08:42:00,61.0,55.0,30.00,WSW,246,0.0,2.0,81,0.00,,,0.00,,2013-06-06 15:42:00,
2013-06-06 08:53:00,63.0,56.0,30.00,SW,215,0.0,3.0,78,0.00,,,0.00,,2013-06-06 15:53:00,
2013-06-06 09:02:00,64.0,56.0,30.00,SW,226,0.0,4.0,76,0.00,,,0.00,,2013-06-06 16:02:00,
2013-06-06 09:12:00,64.0,56.0,30.00,SW,226,0.0,4.0,76,0.00,,,0.00,,2013-06-06 16:12:00,
2013-06-06 09:22:00,65.0,56.0,30.00,SW,225,0.0,2.0,73,0.00,,,0.00,,2013-06-06 16:22:00,
2013-06-06 09:33:00,66.0,56.0,30.00,SW,214,3.0,5.0,71,0.00,,,0.00,,2013-06-06 16:33:00,
2013-06-06 09:42:00,66.0,56.0,30.00,SW,214,3.0,5.0,71,0.00,,,0.00,,2013-06-06 16:42:00,
2013-06-06 09:53:00,69.0,57.0,30.01,NW,324,0.0,5.0,65,0.00,,,0.00,,2013-06-06 16:53:00,
2013-06-06 10:02:00,71.0,58.0,30.00,West,263,0.0,4.0,63,0.00,,,0.00,,2013-06-06 17:02:00,
2013-06-06 10:12:00,73.0,57.0,30.00,NW,304,2.0,5.0,58,0.00,,,0.00,,2013-06-06 17:12:00,
2013-06-06 10:22:00,73.0,57.0,30.00,NW,304,2.0,5.0,58,0.00,,,0.00,,2013-06-06 17:22:00,
2013-06-06 10:42:00,74.0,58.0,30.00,WSW,244,0.0,4.0,57,0.00,,,0.00,,2013-06-06 17:42:00,
2013-06-06 10:53:00,76.0,57.0,29.99,ESE,111,0.0,4.0,52,0.00,,,0.00,,2013-06-06 17:53:00,
2013-06-06 11:02:00,77.0,59.0,29.99,ESE,116,0.0,6.0,53,0.00,,,0.00,,2013-06-06 18:02:00,
2013-06-06 11:22:00,80.0,58.0,29.99,ENE,71,2.0,7.0,47,0.00,,,0.00,,2013-06-06 18:22:00,
2013-06-06 11:33:00,81.0,58.0,29.99,ENE,72,1.0,5.0,46,0.00,,,0.00,,2013-06-06 18:33:00,
2013-06-06 11:42:00,81.0,58.0,29.99,ENE,72,1.0,5.0,46,0.00,,,0.00,,2013-06-06 18:42:00,
2013-06-06 11:53:00,83.0,59.0,29.99,East,94,1.0,3.0,44,0.00,,,0.00,,2013-06-06 18:53:00,
2013-06-06 12:02:00,83.0,58.0,29.98,SE,130,1.0,6.0,42,0.00,,,0.00,,2013-06-06 19:02:00,
2013-06-06 12:23:00,84.0,58.0,29.98,NNE,19,1.0,10.0,41,0.00,,,0.00,,2013-06-06 19:23:00,
2013-06-06 12:32:00,83.0,58.0,29.98,West,265,0.0,9.0,42,0.00,,,0.00,,2013-06-06 19:32:00,
2013-06-06 12:42:00,83.0,58.0,29.98,West,265,0.0,9.0,42,0.00,,,0.00,,2013-06-06 19:42:00,
2013-06-06 12:53:00,83.0,57.0,29.98,East,94,4.0,6.0,41,0.00,,,0.00,,2013-06-06 19:53:00,
2013-06-06 13:02:00,84.0,56.0,29.98,NNW,345,0.0,5.0,39,0.00,,,0.00,,2013-06-06 20:02:00,
2013-06-06 13:22:00,84.0,58.0,29.98,ENE,78,0.0,14.0,42,0.00,,,0.00,,2013-06-06 20:22:00,
2013-06-06 13:32:00,84.0,57.0,29.98,South,173,1.0,9.0,40,0.00,,,0.00,,2013-06-06 20:32:00,
2013-06-06 13:42:00,84.0,57.0,29.98,South,173,1.0,9.0,40,0.00,,,0.00,,2013-06-06 20:42:00,
2013-06-06 13:53:00,85.0,57.0,29.97,ENE,61,1.0,6.0,38,0.00,,,0.00,,2013-06-06 20:53:00,
2013-06-06 14:02:00,86.0,60.0,29.97,West,270,4.0,7.0,41,0.00,,,0.00,,2013-06-06 21:02:00,
2013-06-06 14:22:00,85.0,59.0,29.96,SW,231,1.0,5.0,41,0.00,,,0.00,,2013-06-06 21:22:00,
2013-06-06 14:32:00,85.0,59.0,29.96,SW,218,1.0,4.0,41,0.00,,,0.00,,2013-06-06 21:32:00,
2013-06-06 14:43:00,85.0,59.0,29.96,SW,218,1.0,4.0,41,0.00,,,0.00,,2013-06-06 21:43:00,
2013-06-06 14:53:00,85.0,59.0,29.96,WNW,301,2.0,6.0,42,0.00,,,0.00,,2013-06-06 21:53:00,
2013-06-06 15:02:00,85.0,58.0,29.96,NNW,343,3.0,5.0,40,0.00,,,0.00,,2013-06-06 22:02:00,
2013-06-06 15:12:00,85.0,58.0,29.96,NNW,343,3.0,5.0,40,0.00,,,0.00,,2013-06-06 22:12:00,
2013-06-06 15:22:00,85.0,56.0,29.95,ENE,59,2.0,6.0,37,0.00,,,0.00,,2013-06-06 22:22:00,
2013-06-06 15:33:00,85.0,57.0,29.95,NE,44,3.0,10.0,38,0.00,,,0.00,,2013-06-06 22:33:00,
2013-06-06 15:43:00,85.0,57.0,29.95,NE,44,3.0,10.0,38,0.00,,,0.00,,2013-06-06 22:43:00,
2013-06-06 15:53:00,85.0,57.0,29.95,SW,219,0.0,6.0,38,0.00,,,0.00,,2013-06-06 22:53:00,
2013-06-06 16:02:00,84.0,57.0,29.94,WNW,302,1.0,5.0,40,0.00,,,0.00,,2013-06-06 23:02:00,
2013-06-06 16:12:00,84.0,57.0,29.94,WNW,302,1.0,5.0,40,0.00,,,0.00,,2013-06-06 23:12:00,
2013-06-06 16:22:00,85.0,59.0,29.94,WNW,295,3.0,7.0,42,0.00,,,0.00,,2013-06-06 23:22:00,
2013-06-06 16:33:00,84.0,59.0,29.94,NNW,333,2.0,14.0,43,0.00,,,0.00,,2013-06-06 23:33:00,
2013-06-06 16:42:00,84.0,59.0,29.94,NNW,333,2.0,14.0,43,0.00,,,0.00,,2013-06-06 23:42:00,
2013-06-06 16:52:00,82.0,59.0,29.94,NW,314,3.0,13.0,45,0.00,,,0.00,,2013-06-06 23:52:00,
2013-06-06 17:02:00,82.0,59.0,29.94,NW,315,6.0,11.0,46,0.00,,,0.00,,2013-06-07 00:02:00,
2013-06-06 17:12:00,82.0,59.0,29.94,NW,315,6.0,11.0,46,0.00,,,0.00,,2013-06-07 00:12:00,
2013-06-06 17:22:00,82.0,60.0,29.95,South,172,2.0,11.0,47,0.00,,,0.00,,2013-06-07 00:22:00,
2013-06-06 17:32:00,81.0,58.0,29.95,South,181,5.0,11.0,46,0.00,,,0.00,,2013-06-07 00:32:00,
2013-06-06 17:42:00,81.0,58.0,29.95,South,181,5.0,11.0,46,0.00,,,0.00,,2013-06-07 00:42:00,
2013-06-06 17:52:00,79.0,59.0,29.96,WNW,288,3.0,12.0,50,0.00,,,0.00,,2013-06-07 00:52:00,
2013-06-06 18:02:00,78.0,58.0,29.96,WNW,287,0.0,10.0,51,0.00,,,0.00,,2013-06-07 01:02:00,
2013-06-06 18:11:00,78.0,58.0,29.96,WNW,287,0.0,10.0,51,0.00,,,0.00,,2013-06-07 01:11:00,
2013-06-06 18:22:00,76.0,58.0,29.95,NW,309,0.0,12.0,53,0.00,,,0.00,,2013-06-07 01:22:00,
2013-06-06 18:32:00,77.0,58.0,29.95,WNW,289,2.0,6.0,52,0.00,,,0.00,,2013-06-07 01:32:00,
2013-06-06 18:42:00,77.0,58.0,29.95,WNW,289,2.0,6.0,52,0.00,,,0.00,,2013-06-07 01:42:00,
2013-06-06 18:52:00,77.0,59.0,29.95,NW,317,2.0,5.0,53,0.00,,,0.00,,2013-06-07 01:52:00,
2013-06-06 19:02:00,77.0,58.0,29.95,WNW,286,1.0,8.0,52,0.00,,,0.00,,2013-06-07 02:02:00,
2013-06-06 19:12:00,77.0,58.0,29.95,WNW,286,1.0,8.0,52,0.00,,,0.00,,2013-06-07 02:12:00,
2013-06-06 19:22:00,75.0,56.0,29.95,NNW,330,1.0,6.0,52,0.00,,,0.00,,2013-06-07 02:22:00,
2013-06-06 19:32:00,75.0,57.0,29.95,West,277,2.0,6.0,53,0.00,,,0.00,,2013-06-07 02:32:00,
2013-06-06 19:42:00,75.0,57.0,29.95,West,277,2.0,6.0,53,0.00,,,0.00,,2013-06-07 02:42:00,
2013-06-06 19:52:00,73.0,55.0,29.96,WSW,256,0.0,6.0,54,0.00,,,0.00,,2013-06-07 02:52:00,
2013-06-06 20:02:00,73.0,56.0,29.95,WNW,290,2.0,6.0,55,0.00,,,0.00,,2013-06-07 03:02:00,
2013-06-06 20:11:00,73.0,56.0,29.95,WNW,290,2.0,6.0,55,0.00,,,0.00,,2013-06-07 03:11:00,
2013-06-06 20:22:00,72.0,56.0,29.96,WNW,294,0.0,4.0,57,0.00,,,0.00,,2013-06-07 03:22:00,
2013-06-06 20:32:00,71.0,55.0,29.96,West,275,2.0,5.0,57,0.00,,,0.00,,2013-06-07 03:32:00,
2013-06-06 20:43:00,71.0,55.0,29.96,West,275,2.0,5.0,57,0.00,,,0.00,,2013-06-07 03:43:00,
2013-06-06 20:53:00,70.0,55.0,29.97,West,279,0.0,3.0,59,0.00,,,0.00,,2013-06-07 03:53:00,
2013-06-06 21:02:00,69.0,55.0,29.96,West,259,1.0,5.0,60,0.00,,,0.00,,2013-06-07 04:02:00,
2013-06-06 21:12:00,69.0,55.0,29.96,West,259,1.0,5.0,60,0.00,,,0.00,,2013-06-07 04:12:00,
2013-06-06 21:22:00,67.0,54.0,29.96,SSW,207,2.0,4.0,63,0.00,,,0.00,,2013-06-07 04:22:00,
2013-06-06 21:33:00,66.0,53.0,29.96,South,181,0.0,4.0,64,0.00,,,0.00,,2013-06-07 04:33:00,
2013-06-06 21:42:00,66.0,53.0,29.96,South,181,0.0,4.0,64,0.00,,,0.00,,2013-06-07 04:42:00,
2013-06-06 21:53:00,65.0,53.0,29.98,SW,223,0.0,5.0,66,0.00,,,0.00,,2013-06-07 04:53:00,
2013-06-06 22:02:00,64.0,52.0,29.99,WNW,300,0.0,7.0,66,0.00,,,0.00,,2013-06-07 05:02:00,
2013-06-06 22:11:00,64.0,52.0,29.99,WNW,300,0.0,7.0,66,0.00,,,0.00,,2013-06-07 05:11:00,
2013-06-06 22:22:00,64.0,52.0,30.00,WNW,299,3.0,7.0,65,0.00,,,0.00,,2013-06-07 05:22:00,
2013-06-06 22:31:00,64.0,52.0,30.00,West,279,0.0,3.0,65,0.00,,,0.00,,2013-06-07 05:31:00,
2013-06-06 22:42:00,64.0,52.0,30.00,West,279,0.0,3.0,65,0.00,,,0.00,,2013-06-07 05:42:00,
2013-06-06 22:52:00,62.0,51.0,30.00,WSW,240,0.0,1.0,67,0.00,,,0.00,,2013-06-07 05:52:00,
2013-06-06 23:02:00,62.0,51.0,30.01,SW,229,0.0,2.0,68,0.00,,,0.00,,2013-06-07 06:02:00,
2013-06-06 23:12:00,62.0,51.0,30.01,SW,229,0.0,2.0,68,0.00,,,0.00,,2013-06-07 06:12:00,
2013-06-06 23:21:00,61.0,51.0,30.01,SW,219,0.0,1.0,69,0.00,,,0.00,,2013-06-07 06:21:00,
2013-06-06 23:32:00,61.0,51.0,30.01,West,277,0.0,4.0,69,0.00,,,0.00,,2013-06-07 06:32:00,
2013-06-06 23:41:00,61.0,51.0,30.01,West,277,0.0,4.0,69,0.00,,,0.00,,2013-06-07 06:41:00,
2013-06-06 23:52:00,60.0,50.0,30.02,West,268,0.0,1.0,70,0.00,,,0.00,,2013-06-07 06:52:00,